VK4TW-13 Weather Reports


time (UTC)temp
C
wind
direction
speed
KPH
gust
KPH
rain 1hr
cm
rain 24hr
cm
rain mn
cm
humidity
%
barometer
mb
20260506013804 26 102 1.6 11.3 0.00 0.00 0.00 100 1015.1
20260506013438 27 108 9.7 12.9 0.00 0.00 0.00 100 1015.0
20260506012953 27 98 1.6 11.3 0.00 0.00 0.00 100 1015.0
20260506012651 27 106 9.7 9.7 0.00 0.00 0.00 100 1014.9
20260506011917 27 94 1.6 12.9 0.00 0.00 0.00 100 1015.0
20260506011617 27 75 12.9 12.9 0.00 0.00 0.00 100 1015.0
20260506011221 28 97 3.2 9.7 0.00 0.00 0.00 100 1015.0
20260506010220 28 95 3.2 8.0 0.00 0.00 0.00 100 1015.0
20260506005220 28 103 6.4 8.0 0.00 0.00 0.00 100 1015.1
20260506004221 28 99 3.2 19.3 0.00 0.00 0.00 100 1015.2
20260506003918 28 106 11.3 12.9 0.00 0.00 0.00 100 1015.3
20260506003258 28 87 3.2 8.0 0.00 0.00 0.00 100 1015.3
20260506002258 28 107 8.0 8.0 0.00 0.00 0.00 100 1015.4
20260506001434 27 99 0.0 8.0 0.00 0.00 0.00 100 1015.4
20260506001131 27 94 8.0 11.3 0.00 0.00 0.00 100 1015.5
20260506000702 27 109 0.0 8.0 0.00 0.00 0.00 100 1015.4
20260505234540 26 111 0.0 8.0 0.00 0.00 0.00 100 1015.5
20260505233538 26 72 6.4 6.4 0.00 0.00 0.00 100 1015.7
20260505232540 25 104 1.6 12.9 0.00 0.00 0.00 100 1015.8
20260505232241 25 73 12.9 12.9 0.00 0.00 0.00 100 1015.7
20260505231706 25 93 4.8 12.9 0.00 0.00 0.00 100 1015.7
20260505231408 25 81 14.5 14.5 0.00 0.00 0.00 100 1015.7
20260505230508 24 102 4.8 9.7 0.00 0.00 0.00 100 1015.9
20260505225508 24 91 4.8 12.9 0.00 0.00 0.00 100 1015.8
20260505225133 24 99 12.9 12.9 0.00 0.00 0.00 100 1015.8
20260505224744 24 91 4.8 9.7 0.00 0.00 0.00 100 1015.8
20260505223743 23 97 3.2 9.7 0.00 0.00 0.00 100 1015.9
20260505222744 23 105 4.8 12.9 0.00 0.00 0.00 100 1015.8
20260505222429 23 72 12.9 12.9 0.00 0.00 0.00 100 1015.8
20260505221733 23 71 3.2 8.0 0.00 0.00 0.00 100 1015.8
20260505220732 23 102 6.4 9.7 0.00 0.00 0.00 100 1015.7
20260505215735 23 87 8.0 8.0 0.00 0.00 0.00 100 1015.6
20260505214730 22 90 1.6 4.8 0.00 0.00 0.00 100 1015.6
20260505213729 22 78 3.2 3.2 0.00 0.00 0.00 100 1015.5
20260505212728 22 79 1.6 3.2 0.00 0.00 0.00 100 1015.4
20260505210727 21 91 1.6 4.8 0.00 0.00 0.00 100 1015.4
20260505205728 21 79 1.6 3.2 0.00 0.00 0.00 100 1015.2
20260505204726 21 100 0.0 3.2 0.00 0.00 0.00 100 1015.2
20260505203726 21 68 0.0 1.6 0.00 0.00 0.00 100 1015.0
20260505202726 21 99 0.0 1.6 0.00 0.00 0.00 100 1014.9
20260505201721 21 68 3.2 3.2 0.00 0.00 0.00 100 1014.7
20260505200721 21 72 1.6 4.8 0.00 0.00 0.00 100 1014.7
20260505195721 21 77 3.2 3.2 0.00 0.00 0.00 100 1014.6
20260505194721 21 112 4.8 4.8 0.00 0.00 0.00 100 1014.6
20260505192717 21 99 0.0 4.8 0.00 0.00 0.00 100 1014.4
20260505191718 21 112 0.0 3.2 0.00 0.00 0.00 100 1014.6
20260505190717 21 99 1.6 3.2 0.00 0.00 0.00 100 1014.3
20260505185718 21 112 0.0 3.2 0.00 0.00 0.00 100 1014.3
20260505184714 21 89 0.0 1.6 0.00 0.00 0.00 100 1014.3
20260505182715 21 73 0.0 3.2 0.00 0.00 0.00 100 1014.2
20260505181710 21 68 0.0 3.2 0.00 0.00 0.00 100 1014.1
20260505180713 21 85 0.0 4.8 0.00 0.00 0.00 100 1014.2
20260505175712 21 74 1.6 6.4 0.00 0.00 0.00 100 1014.1
20260505174708 21 112 0.0 3.2 0.00 0.00 0.00 100 1014.1
20260505173707 21 97 0.0 1.6 0.00 0.00 0.00 100 1014.2
20260505172710 21 112 0.0 3.2 0.00 0.00 0.00 100 1014.3
20260505171707 21 78 1.6 4.8 0.00 0.00 0.00 100 1014.5
20260505170706 22 79 1.6 3.2 0.00 0.00 0.00 100 1014.5
20260505164703 22 112 0.0 3.2 0.00 0.00 0.00 100 1014.4
20260505163701 22 99 0.0 4.8 0.00 0.00 0.00 100 1014.5
20260505162704 22 112 0.0 4.8 0.00 0.00 0.00 100 1014.7
20260505160701 22 99 4.8 6.4 0.00 0.00 0.00 100 1014.7
20260505152659 22 101 1.6 6.4 0.00 0.00 0.00 100 1015.3
20260505151656 22 86 1.6 6.4 0.00 0.00 0.00 100 1015.1
20260505150654 22 84 0.0 4.8 0.00 0.00 0.00 100 1015.2
20260505140648 22 108 4.8 4.8 0.00 0.00 0.00 100 1015.6
20260505124559 22 96 3.2 12.9 0.00 0.00 0.00 100 1016.0
20260505123559 22 92 6.4 6.4 0.00 0.00 0.00 100 1015.8
20260505122558 22 89 1.6 9.7 0.00 0.00 0.00 100 1015.7
20260505122254 22 97 9.7 9.7 0.00 0.00 0.00 100 1015.9
20260505121827 22 100 1.6 3.2 0.00 0.00 0.00 100 1016.2
20260505120825 22 95 3.2 8.0 0.00 0.00 0.00 100 1016.0
20260505115824 22 112 0.0 6.4 0.00 0.00 0.00 100 1015.9
20260505114824 22 112 3.2 12.9 0.00 0.00 0.00 100 1016.0
20260505113823 22 79 8.0 8.0 0.00 0.00 0.00 100 1015.7
20260505112948 22 112 0.0 3.2 0.00 0.00 0.00 100 1015.8
20260505111947 22 112 1.6 3.2 0.00 0.00 0.00 100 1015.9
20260505110946 22 112 1.6 12.9 0.00 0.00 0.00 100 1016.2
20260505110646 22 107 12.9 12.9 0.00 0.00 0.00 100 1016.1
20260505102205 22 92 11.3 11.3 0.00 0.00 0.00 100 1015.9
20260505101717 22 112 3.2 12.9 0.00 0.00 0.00 100 1016.0
20260505101418 22 103 12.9 12.9 0.00 0.00 0.00 100 1015.9
20260505100719 22 112 4.8 6.4 0.00 0.00 0.00 100 1015.9
20260505095717 22 112 0.0 8.0 0.00 0.00 0.00 100 1015.8
20260505095105 22 93 9.7 9.7 0.00 0.00 0.00 100 1015.5
20260505094435 22 112 0.0 6.4 0.00 0.00 0.00 100 1015.4
20260505093433 23 112 1.6 6.4 0.00 0.00 0.00 100 1015.4
20260505092436 23 112 0.0 3.2 0.00 0.00 0.00 100 1015.4
20260505091433 23 112 0.0 3.2 0.00 0.00 0.00 100 1015.3
20260505090431 23 112 0.0 3.2 0.00 0.00 0.00 100 1015.1
20260505085431 23 103 1.6 4.8 0.00 0.00 0.00 100 1014.9
20260505084428 23 99 1.6 6.4 0.00 0.00 0.00 100 1014.8
20260505083428 23 112 1.6 6.4 0.00 0.00 0.00 100 1014.6
20260505082427 23 112 0.0 4.8 0.00 0.00 0.00 100 1014.8
20260505081425 23 112 0.0 3.2 0.00 0.00 0.00 100 1014.7
20260505080424 23 112 0.0 1.6 0.00 0.00 0.00 100 1014.6
20260505075428 23 106 1.6 6.4 0.00 0.00 0.00 100 1014.6
20260505074423 24 112 3.2 3.2 0.00 0.00 0.00 100 1014.5
20260505073423 24 92 6.4 9.7 0.00 0.00 0.00 100 1014.5
20260505072426 24 112 3.2 11.3 0.00 0.00 0.00 100 1014.3
20260505072119 24 109 11.3 11.3 0.00 0.00 0.00 100 1014.2
20260505071751 25 112 3.2 9.7 0.00 0.00 0.00 100 1014.2
20260505070753 25 109 8.0 8.0 0.00 0.00 0.00 100 1013.9
20260505065826 25 112 0.0 6.4 0.00 0.00 0.00 100 1014.0
20260505064822 25 112 0.0 8.0 0.00 0.00 0.00 100 1013.7
20260505064303 25 105 8.0 8.0 0.00 0.00 0.00 100 1013.6
20260505063405 26 112 0.0 6.4 0.00 0.00 0.00 100 1013.5
20260505063058 26 103 8.0 8.0 0.00 0.00 0.00 100 1013.5
20260505062451 26 111 0.0 6.4 0.00 0.00 0.00 100 1013.4
20260505061450 26 112 0.0 6.4 0.00 0.00 0.00 100 1013.4
20260505060450 26 112 0.0 8.0 0.00 0.00 0.00 100 1013.4
20260505060145 26 106 8.0 8.0 0.00 0.00 0.00 100 1013.3
20260505055550 26 112 0.0 4.8 0.00 0.00 0.00 100 1013.5
20260505054549 26 112 0.0 4.8 0.00 0.00 0.00 100 1013.6
20260505053549 26 112 1.6 4.8 0.00 0.00 0.00 100 1013.6
20260505052548 26 99 1.6 9.7 0.00 0.00 0.00 100 1013.6
20260505052216 27 112 9.7 9.7 0.00 0.00 0.00 100 1013.6
20260505051429 27 106 1.6 4.8 0.00 0.00 0.00 100 1013.4
20260505050425 27 109 3.2 3.2 0.00 0.00 0.00 100 1013.2
20260505041630 28 112 1.6 6.4 0.00 0.00 0.00 100 1013.4
20260505040632 28 112 0.0 4.8 0.00 0.00 0.00 100 1013.3
20260505035632 28 112 0.0 9.7 0.00 0.00 0.00 100 1013.4
20260505034627 28 90 3.2 4.8 0.00 0.00 0.00 100 1013.6
20260505033627 28 108 1.6 4.8 0.00 0.00 0.00 100 1013.8
20260505032626 28 112 3.2 6.4 0.00 0.00 0.00 100 1013.6
20260505031626 28 112 0.0 12.9 0.00 0.00 0.00 100 1013.6
20260505031326 28 112 11.3 12.9 0.00 0.00 0.00 100 1013.7
20260505031019 28 112 1.6 12.9 0.00 0.00 0.00 100 1013.7
20260505030714 28 108 9.7 11.3 0.00 0.00 0.00 100 1013.8
20260505030357 28 112 1.6 11.3 0.00 0.00 0.00 100 1013.8
20260505025358 28 103 4.8 4.8 0.00 0.00 0.00 100 1013.9
20260505024355 28 112 1.6 4.8 0.00 0.00 0.00 100 1014.0
20260505023353 28 102 3.2 4.8 0.00 0.00 0.00 100 1014.0
20260505022353 28 106 6.4 6.4 0.00 0.00 0.00 100 1014.3
20260505021351 28 104 3.2 4.8 0.00 0.00 0.00 100 1014.4
20260505020350 28 97 3.2 8.0 0.00 0.00 0.00 100 1014.5
20260505015350 28 99 1.6 6.4 0.00 0.00 0.00 100 1014.5
20260505014348 28 103 3.2 8.0 0.00 0.00 0.00 100 1014.4